Location: Leedale
(52.5833°N, 114.4833°W)
Time: 15:29:08
(UTC+00:00)

Envisat - Pass Details

Date: 13 August 2024
Orbit: 762 x 764 km, 98.3° (Epoch: 09 September)

Event Time Altitude Azimuth Distance (km) Brightness Sun altitude
Rises 09:54:18 0° 23° (NNE) 3,241 7.9 -17.2°
Reaches altitude 10° 09:57:02 10° 36° (NE) 2,309 6.8 -17.0°
Maximum altitude 10:01:11 25° 92° (E) 1,512 4.9 -16.6°
Drops below altitude 10° 10:05:19 10° 147° (SSE) 2,294 5.3 -16.3°
Enters shadow 10:07:04 - 156° (SSE) 2,881 5.7 -16.1°
